Starlink 3823

operational
NORAD ID: 52336 Int'l Des: 2022-045 Owner: SPXS Country: US Constellation: starlink
LEOCIRCULAR

Über Starlink 3823

Beschreibung wird geladen...

Live-Position

3D-Globus wird geladen...

Nächste Überflüge

Höhenverlauf

Altitude vs Time

uPlot chart will show altitude changes over time

Zweizeiliger Elementsatz

1 52336U 22045F 26073.71485681 .00001423 00000-0 10748-3 0 9993
2 52336 53.2172 186.3574 0001337 84.8134 275.3011 15.08848370216403
Epoch: 14. März 2026 • Age: 16 hours

Aktueller Status

Höhe 545.1 km
Geschwindigkeit 7.60 km/s
Subsatellitenpunkt 52.16°N, 25.28°W
Startdatum 29. Apr. 2022
Alter 3.8 years
Typ internet

Technische Details

Klassifizierung Payload
Masse 297.00 kg
Trockenmasse 275.00 kg
Gesamtmasse 297.00 kg
Länge 0.20 m
Durchmesser 2.80 m
Spannweite 9.00 m
Form Box + pan
Hersteller SPXS
Bus-Typ Starlink
Phasenstatus In Orbit
Besitzer/Staat SPXS/US

Große Konstellationen

Loading constellations...